Weather Roundup
Issued by NWS

Home | Current Version | Previous Version | Graphics & Text | Print | Product List | Glossary Off
Versions: 1 2 3 4 5 6 7 8 9 10 11 12 13 14 15 16 17 18 19 20 21 22 23 24 25 26 27 28 29 30 31 32 33 34 35 36 37 38 39 40 41 42 43 44 45 46 47 48 49 50

000
NZUS93 KARX 290759
HRRWXR

CURRENT HOURLY OBSERVATIONS ACROSS
MUCH OF THE UPPER MISSISSIPPI VALLEY
NATIONAL WEATHER SERVICE LA CROSSE WI
300 AM CDT WED JUL 29 2015


...SOUTHEAST MINNESOTA...


CITY           SKY/WX    TMP DP  RH WIND       PRES   REMARKS
ROCHESTER      MOCLDY    65  60  84 W9        29.99R
ROCHESTER/MAYO FAIR      68  59  73 W12G17    29.97S
WINONA         CLOUDY    72  61  68 W7        29.94R
AUSTIN         MOCLDY    66  61  82 W7        30.00R
ALBERT LEA     MOCLDY    64  61  88 W6        30.01S
DODGE CENTER   PTCLDY    63  59  88 W7        29.98S
PRESTON        CLOUDY    65  61  85 W7        29.99S
OWATONNA       PTCLDY    63  57  82 SW7       29.99S
FARIBAULT      CLEAR     64  61  88 CALM      29.97F
$$

...ELSEWHERE IN MINNESOTA...


CITY           SKY/WX    TMP DP  RH WIND       PRES   REMARKS
MINNEAPOLIS    CLEAR     69  57  65 SW12      29.92F
INTNL FALLS    CLOUDY    65  48  54 SW16G32   29.55F
DULUTH         CLEAR     65  53  65 SW13      29.75F
RED WING       PTCLDY    66  61  82 W3        29.92F
REDWOOD FALLS  CLEAR     62  54  74 SW10      29.96S
MANKATO        CLEAR     63  57  82 W9        29.97F
WORTHINGTON    CLEAR     59  52  77 SW8       30.06S
FAIRMONT       CLEAR     63  54  72 SW7       30.02F
$$

...SOUTHWEST WISCONSIN...


CITY           SKY/WX    TMP DP  RH WIND       PRES   REMARKS
LA CROSSE      CLOUDY    75  62  64 W6        29.93R
PRAIRIE DU CHI CLOUDY    74  70  85 NW5       29.94R
BOSCOBEL       CLOUDY    74  72  93 SW5       29.93R
LONE ROCK      CLOUDY    73  70  88 W6        29.93R
PLATTEVILLE    CLOUDY    73  72  97 SW5       29.95S
FORT MC COY    CLOUDY    74  69  86 W3        29.93R
VIROQUA        CLOUDY    73  72  99 W5        29.95R
WIS DELLS      CLOUDY    74  68  80 W5        29.92R
$$

...ELSEWHERE IN WISCONSIN...


CITY           SKY/WX    TMP DP  RH WIND       PRES   REMARKS
MILWAUKEE      MOCLDY    76  70  82 S3        29.90S
MADISON        MOCLDY    78  73  84 CALM      29.91R
GREEN BAY      CLOUDY    72  69  90 S5        29.86S FOG
EAU CLAIRE     NOT AVBL
BLACK RVR FLS  FAIR      73  63  69 W5        29.91S
MEDFORD        CLOUDY    70  60  70 W7        29.90F
WAUSAU         CLOUDY    76  64  66 NW16G28   29.87R
WIS RAPIDS     CLOUDY    75  69  81 W9        29.91R
MARSHFIELD     CLOUDY    73  57  57 NW8       29.91R
RICE LAKE      PTCLDY    66  57  74 W7        29.91S
$$

...NORTHEAST IOWA...


CITY           SKY/WX    TMP DP  RH WIND       PRES   REMARKS
DECORAH        CLOUDY    73  68  83 NW5G12    29.96S
MASON CITY     CLOUDY    63  61  93 W10       30.03R
CHARLES CITY   CLOUDY    70  66  88 NW8       30.00S
OELWEIN          N/A     73  70  88 NW8       29.98S
$$

...ELSEWHERE IN IOWA...


CITY           SKY/WX    TMP DP  RH WIND       PRES   REMARKS
DES MOINES     CLOUDY    73  70  90 SW3       30.01S
IOWA CITY      LGT RAIN  72  70  93 NW5       29.99R
FORT DODGE     CLOUDY    64  61  88 W3        30.04S
$$

...NORTHERN ILLINOIS...


CITY           SKY/WX    TMP DP  RH WIND       PRES   REMARKS
CHICAGO-OHARE  CLOUDY    78  71  79 SW6       29.92R
CHICAGO-MIDWAY CLOUDY    80  71  74 SW8       29.92R THUNDER
MOLINE         CLOUDY    77  72  84 W8        29.95R
ROCKFORD       CLOUDY    74  70  87 SW5       29.95R
PEORIA         MOCLDY    76  72  87 S6        29.93S
$$

NOTE: "FAIR" INDICATES FEW OR NO CLOUDS BELOW 12,000 FEET WITH NO
SIGNIFICANT WEATHER AND/OR OBSTRUCTIONS TO VISIBILITY. WIND
SPEEDS ARE IN MILES-PER-HOUR.



USA.gov is the U.S. government's official web portal to all federal, state and local government web resources and services.